Temp
21 22 22 22 22 23 23 23 22 22 22 22 22 22 23 23 22 22 22 22 22 22 22 22 21 21 21 21 21 20 21 21 21 21 20 20 20 20 19 19 19 18 18 18 18 18 18 18 18 18 18 18 18 18 18 18 18 18 18 18 18 18 18 18 18 18 18 18 18 18 18 17 17 17 17 17 17 17 17 16 16 16 16 16 16
21 21 22 22 22 22 22 22 22 22 22 22 22 22 22 23 22 22 22 22 22 22 22 21 21 21 21 21 21 21 21 21 21 20 20 20 20 19 19 19 19 18 18 18 18 18 18 18 18 18 18 18 18 18 18 18 18 17 18 17 17 17 17 17 17 17 18 17 17 17 17 17 17 17 17 17 17 16 16 16 16 16 16 16 16
21 21 21 22 22 21 21 22 21 21 21 21 22 22 22 22 22 22 22 21 21 22 22 21 21 21 21 21 21 21 21 20 20 20 20 19 19 19 19 19 19 19 18 18 18 18 18 18 18 18 18 18 18 17 18 18 17 17 17 17 17 17 17 17 17 18 18 17 17 17 17 17 17 17 17 17 17 16 16 16 16 16 16 16 16
22 21 21 21 21 20 20 21 21 21 21 21 22 22 22 22 22 22 22 21 21 21 21 21 21 21 21 21 21 21 20 20 20 20 19 19 19 19 19 19 19 18 18 18 18 18 18 18 18 18 18 18 18 17 17 17 17 17 17 18 17 17 17 17 17 18 18 18 17 17 17 17 17 17 17 17 17 16 16 16 16 16 16 16 16
21 21 20 20 20 20 20 20 20 20 21 21 22 22 22 22 22 22 22 21 21 21 21 21 21 21 21 21 21 21 20 20 20 20 19 19 19 19 19 19 19 18 18 18 18 18 18 18 18 18 18 18 18 17 17 17 17 17 17 17 17 18 18 18 18 18 18 18 18 17 17 17 17 17 17 17 16 16 16 16 16 16 16 16 16
21 21 21 20 20 20 20 20 20 20 21 21 22 22 22 22 22 22 22 21 21 21 21 21 21 21 21 21 21 20 20 20 20 20 20 19 19 19 19 19 19 19 18 18 18 18 18 18 18 18 18 18 18 17 17 17 17 17 17 17 17 17 18 17 18 18 18 18 18 18 17 17 17 17 17 17 16 16 16 16 16 16 16 16 16
21 21 21 21 21 20 20 20 20 20 21 21 22 22 22 22 22 22 22 21 21 21 20 20 20 21 21 21 20 20 20 20 20 20 20 20 19 19 19 19 19 18 18 18 18 18 18 18 18 18 18 17 17 17 17 17 17 17 17 17 17 17 18 17 17 18 18 18 18 18 17 17 17 17 17 17 16 16 16 16 16 16 16 16 16
21 20 21 21 21 20 20 20 20 20 20 21 21 22 22 22 22 22 21 21 21 21 20 20 20 20 20 20 20 20 20 20 20 20 20 19 19 19 19 19 19 18 19 19 18 18 18 18 18 18 18 18 18 18 17 17 17 17 17 17 17 17 18 17 17 17 18 18 18 18 18 17 17 17 17 17 17 16 16 16 16 16 16 16 16
21 21 21 21 21 20 20 20 20 20 20 21 21 22 22 22 22 21 21 21 21 21 20 20 20 20 20 20 20 20 20 20 20 20 20 19 19 19 19 18 19 19 18 18 18 18 18 19 19 18 18 18 17 17 17 17 17 17 17 17 17 17 17 18 17 17 18 18 18 18 18 17 17 17 17 17 16 16 16 16 16 16 16 16 16
21 20 20 21 20 20 20 20 20 20 20 21 21 21 21 21 21 21 21 21 21 21 20 20 20 20 20 20 20 20 20 20 20 20 19 19 19 19 19 19 19 19 18 18 18 18 18 18 19 18 18 18 17 17 17 17 17 17 17 17 17 17 17 18 18 17 18 18 18 18 17 17 17 17 16 16 16 16 16 16 16 16 16 16 16
20 19 19 20 20 20 20 20 20 20 20 20 21 21 21 21 21 21 21 21 21 20 20 19 19 19 19 20 20 20 20 20 20 19 19 19 19 19 19 19 19 19 18 18 18 18 18 18 18 18 18 18 18 17 17 17 17 17 17 17 17 17 17 18 18 18 18 18 18 18 17 17 17 17 16 16 16 16 16 16 16 16 16 16 16
19 19 19 19 20 20 20 20 20 20 20 20 21 21 21 21 21 21 20 20 20 20 20 19 19 19 19 19 19 19 19 19 19 19 19 19 19 19 19 19 19 18 18 18 18 18 18 18 18 18 18 18 18 18 18 17 17 17 17 17 17 17 18 18 18 18 18 18 18 18 17 17 17 17 16 16 16 16 16 16 16 16 16 16 16
19 20 20 20 20 20 20 20 20 20 19 20 20 21 20 20 20 20 20 20 20 20 20 19 19 19 19 19 19 19 19 19 19 19 19 19 19 19 19 19 18 18 18 18 18 18 18 18 18 18 18 18 18 18 18 18 18 18 18 18 17 18 18 18 19 19 18 18 18 18 17 17 17 17 16 16 16 16 16 16 16 16 16 16 16
19 20 20 20 20 20 20 19 19 19 19 20 20 20 20 20 20 20 20 20 20 20 19 19 19 19 19 19 19 19 19 19 19 19 19 19 19 19 19 18 18 18 18 18 18 18 18 18 18 18 18 18 19 18 18 18 18 18 18 18 17 18 19 19 19 19 18 18 18 18 18 18 17 17 17 16 16 16 16 16 16 16 16 16 15
21 21 21 21 20 20 20 19 19 19 19 20 20 20 20 20 20 20 20 20 20 20 19 19 19 19 19 19 19 19 19 19 19 19 19 19 19 19 18 18 18 18 18 18 18 18 18 18 18 18 18 18 18 18 18 18 18 18 18 18 17 18 19 18 19 19 18 18 18 18 18 18 18 17 17 16 16 16 16 16 16 16 16 15 15
22 21 20 21 21 20 19 19 19 19 20 20 20 20 19 20 20 20 20 20 20 20 19 19 19 19 19 19 19 19 19 19 19 19 19 19 19 18 18 18 18 18 18 18 18 18 18 18 18 18 18 17 18 18 18 18 18 18 18 18 18 18 19 18 18 19 19 19 19 18 18 18 18 17 17 16 16 16 16 16 16 16 15 15 15
20 20 20 20 20 19 19 19 19 19 20 20 19 19 19 20 20 20 20 20 20 19 19 19 19 19 19 19 19 19 19 19 19 19 19 19 19 18 18 18 17 18 18 18 18 18 18 18 18 18 17 17 17 18 18 18 18 18 18 18 18 18 19 18 18 19 19 19 19 18 18 18 18 17 17 16 16 16 16 16 16 15 15 15 15
20 20 20 19 19 19 19 19 19 19 19 19 19 19 20 20 20 20 20 20 19 19 19 19 19 19 19 19 19 19 19 19 19 19 18 18 18 18 18 18 18 18 18 18 18 18 18 18 18 18 18 17 17 18 18 18 18 18 18 18 18 19 19 18 18 19 19 19 19 19 18 18 18 18 17 17 16 16 16 16 16 15 15 15 15
19 19 19 19 19 19 19 19 19 19 19 19 19 19 20 20 20 20 20 19 19 19 19 19 19 19 19 19 19 19 19 19 19 18 18 18 18 18 18 18 18 18 18 18 18 18 18 18 18 18 18 17 17 17 18 18 18 18 18 18 18 19 19 18 18 19 19 19 19 19 18 18 18 18 17 17 16 16 16 16 16 15 15 15 15
18 19 19 19 18 18 18 18 19 19 19 19 19 19 19 20 20 20 19 19 19 19 19 19 19 19 19 19 19 18 18 18 18 18 18 18 18 18 18 18 18 18 18 18 18 18 18 18 18 18 18 18 17 17 17 18 18 18 18 18 18 19 19 19 18 19 19 19 19 19 18 18 18 18 17 17 16 16 16 16 16 15 15 15 15
18 18 18 18 18 18 18 19 18 18 18 18 18 19 19 19 20 19 19 19 19 19 19 19 19 19 19 18 18 18 18 18 18 18 18 18 18 18 18 18 18 18 18 18 18 18 18 18 18 18 18 18 18 18 18 18 18 18 18 18 18 19 19 19 19 19 19 19 19 19 18 18 18 17 17 16 16 16 15 15 16 15 15 15 15
18 18 18 19 18 18 18 18 18 18 18 18 19 19 19 19 20 19 19 19 19 19 19 18 18 19 18 18 18 18 18 18 18 18 18 18 18 18 18 18 18 18 18 18 18 18 18 18 18 18 18 18 18 18 18 18 18 18 18 18 18 18 19 19 19 19 19 19 19 19 18 18 18 17 17 16 16 16 15 15 15 15 15 15 15
18 18 18 18 18 18 18 18 18 18 18 19 19 19 19 20 20 19 19 19 19 19 19 18 18 19 18 18 18 18 18 18 18 18 18 18 18 18 18 18 18 18 18 18 18 18 18 18 18 18 18 18 18 18 18 18 18 18 18 18 18 18 19 19 19 19 19 19 19 19 18 18 18 17 16 16 16 16 16 15 15 15 15 15 15
18 18 18 18 18 18 18 18 19 19 19 19 19 19 20 20 20 19 19 19 19 19 18 18 18 18 18 18 18 18 18 18 18 18 18 18 18 18 18 18 18 18 18 18 18 18 18 18 18 18 18 18 18 18 18 18 18 18 19 19 18 18 19 19 19 19 19 19 19 19 19 18 17 17 16 16 16 16 15 15 15 15 15 15 15
18 18 18 17 18 18 19 19 20 20 20 19 19 20 20 20 20 19 19 19 19 19 18 18 18 18 18 18 18 18 18 18 18 18 18 17 18 18 18 18 18 17 17 17 18 18 18 18 18 18 18 18 18 18 19 19 19 18 19 18 18 18 19 19 19 19 19 19 19 19 19 18 17 17 16 16 16 16 15 15 15 15 15 15 15
18 18 17 17 18 19 20 20 20 20 20 20 20 20 20 20 20 19 19 19 19 18 18 18 18 18 18 18 18 18 18 18 18 18 18 18 17 18 18 18 18 17 17 17 18 18 18 18 18 18 18 18 18 18 18 19 19 19 18 18 18 18 19 19 19 19 18 19 19 19 19 18 18 17 17 16 15 15 16 15 15 15 15 15 15
18 17 17 18 18 19 20 20 20 20 20 20 20 20 20 20 20 19 19 19 19 19 18 18 18 18 18 18 18 18 18 18 18 18 18 18 17 17 18 18 17 17 17 18 18 18 18 18 18 18 18 18 18 18 18 19 19 19 19 18 18 18 18 19 19 19 19 19 19 19 19 19 18 17 17 16 16 16 16 15 15 15 14 14 14
18 18 18 18 19 19 20 20 20 20 20 20 20 20 20 20 20 19 19 19 19 19 18 18 18 18 18 18 18 18 18 18 18 18 18 18 17 17 17 17 17 17 17 18 18 18 18 18 18 18 17 18 18 18 18 18 18 19 19 19 19 18 19 19 19 19 19 19 19 19 19 19 18 17 17 16 16 16 16 16 15 15 14 14 14
18 18 18 18 19 19 19 20 20 20 20 20 20 20 20 20 20 19 19 19 19 19 18 18 18 18 18 18 18 18 18 18 18 18 18 18 18 18 17 17 17 17 17 17 17 17 18 18 17 17 17 17 18 18 18 18 18 19 19 19 19 19 19 19 19 19 19 19 19 19 19 19 18 17 17 16 16 16 16 15 15 15 15 14 14
18 18 18 18 18 19 19 20 20 20 20 19 19 19 20 20 19 19 19 19 19 19 18 18 18 18 18 17 17 17 17 18 18 18 18 18 18 18 17 17 17 17 17 17 17 17 17 17 17 17 17 17 18 18 18 18 19 19 19 19 19 19 19 19 19 19 19 19 19 19 19 19 18 17 17 16 16 16 16 15 15 15 15 14 14
18 18 18 19 19 19 19 19 20 20 19 19 19 19 19 19 19 19 19 19 19 18 18 18 18 17 17 17 17 17 17 17 17 17 17 18 17 17 17 17 17 17 17 17 17 17 17 17 17 17 17 17 17 18 18 18 18 19 19 19 19 19 19 19 19 19 19 19 19 19 19 18 18 18 17 17 16 16 16 16 15 15 15 14 14
18 19 19 19 19 19 19 20 20 19 19 19 19 19 19 19 19 19 19 19 18 18 18 18 17 17 17 17 17 17 17 17 17 17 17 17 17 16 16 16 17 17 17 16 17 17 17 17 17 17 17 17 17 18 18 18 19 19 19 19 19 19 19 19 19 19 19 19 19 19 19 18 18 18 18 17 16 16 16 15 15 15 15 14 14
19 19 19 19 19 19 19 20 19 19 20 20 20 19 19 19 19 19 19 18 18 18 18 18 17 17 17 17 16 16 16 16 17 17 17 17 16 16 16 16 17 16 16 16 16 16 17 17 17 17 17 17 17 18 18 18 19 19 19 19 18 19 19 19 19 19 19 19 19 19 19 19 18 18 18 17 17 16 16 15 15 15 15 15 15
20 19 19 19 19 19 19 20 20 20 20 20 20 20 19 19 19 19 18 18 18 18 17 17 17 17 17 16 16 16 16 16 16 17 17 17 16 16 16 16 17 17 16 16 16 16 17 17 17 17 17 17 18 18 18 18 19 19 19 18 19 19 19 19 19 19 19 19 19 19 19 19 18 18 18 17 17 16 16 16 15 15 15 15 15
19 18 19 19 18 19 20 20 20 20 20 20 20 19 19 19 19 18 18 18 18 17 17 17 17 17 17 16 16 17 16 16 16 16 17 16 16 16 16 16 17 17 17 16 16 17 17 17 17 17 17 18 18 18 18 18 18 18 18 19 19 19 19 19 19 19 19 19 19 19 19 19 18 18 18 18 17 17 16 16 16 15 15 15 15
19 18 19 19 18 19 20 20 20 20 20 20 20 19 19 19 18 18 18 18 17 17 17 17 17 17 17 17 16 17 16 16 16 16 16 16 16 16 16 16 16 17 17 17 17 17 17 17 17 17 17 18 18 18 18 18 18 18 18 19 19 19 19 19 19 19 18 19 19 19 19 18 18 18 18 18 17 17 16 16 16 16 15 15 15
19 19 19 19 18 19 21 20 20 20 20 20 19 19 19 19 18 18 18 18 17 17 17 17 17 17 17 17 16 16 16 16 16 16 16 16 16 16 16 16 16 16 16 17 17 17 17 16 16 17 17 17 18 18 18 18 18 18 18 18 18 18 19 19 19 19 18 18 19 19 19 18 18 18 18 18 18 17 17 16 16 16 16 15 15
19 20 19 19 19 20 21 20 20 20 20 20 19 19 19 19 18 18 18 17 17 17 17 17 17 17 17 17 17 17 16 16 16 16 16 16 16 16 16 16 16 16 16 16 17 17 16 16 16 17 17 17 17 18 17 18 18 18 18 17 18 18 18 18 18 18 18 18 18 18 18 18 18 18 18 18 18 18 17 17 16 16 16 16 16
20 20 20 20 19 20 20 21 20 19 20 20 19 19 19 19 18 18 17 17 17 17 17 17 17 17 17 17 17 17 17 17 16 16 16 15 16 16 16 15 15 16 16 16 16 16 16 16 16 16 17 17 17 17 17 17 18 17 17 17 17 17 18 18 18 18 18 18 18 18 18 18 18 18 18 18 18 18 18 18 17 17 16 16 16
19 19 20 20 19 20 20 20 20 20 20 20 19 19 19 18 18 18 17 17 17 17 17 17 17 17 17 17 17 17 17 17 17 16 16 16 16 16 16 16 16 16 16 16 16 16 16 16 16 16 16 16 17 17 17 17 17 17 17 17 17 17 17 17 17 18 18 18 18 18 18 18 18 18 18 18 18 18 18 18 18 17 17 17 17
18 18 19 19 19 20 20 20 20 20 20 20 20 19 19 18 18 18 18 17 17 17 17 17 17 17 17 17 17 17 17 17 17 16 16 16 16 16 16 16 16 16 16 16 16 16 16 16 16 16 16 16 16 16 17 17 17 16 16 17 17 17 17 17 17 17 17 18 18 18 18 18 18 18 18 18 18 18 18 18 18 18 18 18 18
18 18 19 19 20 20 20 20 20 20 20 20 20 19 19 19 18 18 18 18 17 17 17 17 17 17 17 17 17 17 17 17 17 17 16 16 16 16 15 15 16 15 15 15 15 15 15 15 16 16 16 16 16 16 16 16 16 16 16 16 16 16 16 16 16 17 17 17 17 17 17 17 18 18 18 18 18 18 18 18 18 18 18 18 18
18 18 19 19 20 20 20 20 20 20 20 20 20 20 19 19 18 18 17 17 17 17 17 17 17 17 17 17 17 17 17 17 17 17 17 16 16 16 15 15 15 15 15 14 15 15 15 15 15 16 15 15 15 15 15 15 15 15 16 16 16 16 16 16 16 16 16 17 17 17 17 17 17 17 18 18 18 18 18 18 18 18 18 18 18
18 18 19 19 20 20 21 20 20 20 20 20 20 20 19 19 18 17 17 17 17 17 17 17 17 17 17 17 17 17 17 17 17 17 17 16 16 16 16 15 15 14 14 14 15 15 15 15 15 15 15 15 15 15 15 15 14 15 15 15 14 15 17 16 15 15 16 16 16 16 16 17 17 17 17 17 17 17 17 18 18 18 18 18 18
17 18 19 20 20 20 20 20 20 20 20 20 20 20 19 19 18 17 17 17 17 17 17 17 17 17 17 17 16 16 17 17 17 17 17 16 16 16 16 15 15 14 14 14 14 14 15 15 15 15 15 15 16 15 15 14 15 15 16 15 14 16 16 15 14 15 15 15 16 15 16 16 17 17 17 17 16 16 16 16 17 18 17 17 17
17 18 19 20 20 20 20 20 20 20 20 20 20 19 19 19 18 17 17 17 16 16 17 17 17 17 17 17 16 16 16 17 17 17 17 17 16 16 16 16 15 15 15 15 15 14 14 14 14 14 15 15 16 15 14 14 15 15 16 15 15 15 15 14 15 16 15 15 16 15 16 16 16 16 16 16 16 16 16 16 16 17 17 17 17
17 18 19 19 20 20 20 20 20 20 20 20 19 19 19 18 18 18 18 18 17 17 16 16 16 16 16 16 16 16 16 16 16 17 17 17 17 16 16 16 16 15 15 15 15 15 15 14 14 14 14 15 15 15 14 14 15 15 15 15 15 14 14 15 15 16 16 16 16 16 16 16 16 16 16 16 15 16 16 16 16 16 16 17 17
18 18 18 19 20 20 20 20 20 20 20 19 19 19 19 18 18 18 18 18 18 17 16 16 16 16 16 16 16 16 16 16 16 17 17 17 17 17 16 16 16 16 15 16 16 15 15 15 14 14 14 14 14 14 14 14 14 14 14 14 14 14 15 15 15 15 16 16 16 16 16 16 16 16 16 16 16 16 16 15 16 16 16 16 16
18 18 18 19 19 20 19 19 20 20 20 19 19 19 19 18 18 18 18 18 18 17 16 16 16 16 16 16 16 16 16 16 16 16 16 16 16 16 16 16 16 16 16 16 16 16 15 15 15 14 14 14 14 14 14 14 14 14 14 14 14 14 15 15 15 15 16 15 15 15 15 16 16 16 16 16 16 16 16 16 16 15 15 15 15
18 18 18 19 19 19 19 19 19 19 19 19 19 19 19 19 18 18 18 17 17 16 16 16 16 16 16 15 15 15 16 16 16 16 16 16 16 16 16 16 16 16 16 16 15 15 16 15 15 15 15 15 14 14 15 15 15 15 15 15 15 15 15 15 15 15 15 15 15 14 14 15 16 15 15 15 16 16 16 16 15 15 15 15 15
18 18 18 19 19 19 18 18 18 18 19 18 18 19 19 19 19 18 18 17 17 16 16 16 16 16 15 15 15 15 15 16 16 16 16 16 16 16 16 16 15 15 15 15 15 15 15 15 15 15 15 15 15 15 15 16 16 15 15 15 15 15 15 14 14 15 15 15 15 14 13 14 15 15 15 15 15 15 15 15 15 15 15 15 16
Height
769 771 773 774 775 775 777 777 778 778 779 779 780 781 781 781 782 782 783 784 785 786 787 788 789 790 791 792 793 794 795 796 798 799 800 801 802 802 803 803 803 804 804 804 805 805 805 806 806 807 807 808 809 809 810 810 810 811 812 812 813 813 814 814 814 814 814 815 815 815 815 815 815 816 816 816 816 815 815 815 815 815 816 816 816
769 772 773 774 775 776 777 778 779 779 780 781 782 783 783 783 783 784 784 785 786 787 788 790 790 791 792 793 794 795 796 797 798 799 801 802 802 803 803 804 804 804 805 805 805 806 806 806 807 808 808 809 809 810 810 811 811 812 813 813 814 814 814 815 815 815 815 815 816 816 816 816 817 817 817 817 817 817 816 816 816 816 817 817 817
770 773 774 775 776 777 779 780 780 781 783 783 784 785 785 785 785 785 786 787 787 789 790 791 792 793 794 795 796 796 797 798 799 800 801 802 803 804 804 805 805 805 806 806 807 807 807 807 808 809 809 810 810 810 811 812 812 813 813 814 815 815 815 815 816 815 816 816 816 816 817 817 817 818 818 818 818 818 818 817 817 817 818 818 818
770 774 776 778 779 780 781 782 782 783 784 785 786 786 786 786 786 786 787 788 788 790 791 792 793 794 795 796 797 798 798 799 800 801 802 803 804 805 805 806 806 807 807 807 808 808 808 809 809 810 810 811 811 811 812 812 813 813 814 815 815 816 816 816 816 816 816 816 816 817 817 817 818 818 819 819 819 819 819 819 818 819 819 819 819
768 772 777 780 782 784 784 784 785 785 785 785 786 786 787 787 787 787 787 788 789 791 792 793 794 795 796 796 798 799 799 800 801 802 803 804 805 806 806 807 807 808 808 808 809 809 810 810 810 811 811 812 812 812 813 813 814 814 815 816 816 817 817 817 817 817 817 817 817 817 818 818 819 819 819 820 820 820 820 820 820 820 820 820 820
765 768 774 780 783 785 786 786 786 786 786 786 787 787 787 787 788 788 788 789 789 791 792 794 794 795 796 797 799 799 801 801 802 803 804 805 806 807 807 808 808 809 809 810 810 810 811 811 811 811 812 812 813 813 814 814 815 816 816 817 818 818 818 818 818 818 818 818 818 818 818 819 819 820 820 820 820 821 821 821 821 821 821 821 822
767 766 769 776 782 785 786 787 787 787 787 788 788 788 789 789 788 788 789 789 790 791 793 794 795 796 797 798 799 800 801 802 803 804 805 806 807 808 808 809 809 810 810 811 811 811 811 811 812 812 813 813 814 814 815 815 816 817 817 818 819 819 819 819 819 819 819 819 819 819 819 819 820 820 821 821 821 821 822 822 822 822 822 822 823
769 769 769 772 779 784 786 787 789 789 789 789 790 790 790 790 789 789 789 790 791 792 793 794 795 796 797 799 800 801 802 803 804 805 806 807 808 809 810 810 811 811 811 812 812 812 812 813 813 814 814 814 815 815 816 816 817 817 818 819 819 820 820 820 820 820 820 820 820 820 820 820 821 821 822 822 822 822 823 823 823 823 823 823 824
768 770 771 772 777 783 786 787 789 791 791 791 791 792 792 791 790 790 791 791 792 793 794 795 796 797 798 799 800 801 802 804 805 805 806 807 808 809 810 811 811 812 812 812 812 813 813 814 814 815 815 816 816 816 817 817 818 818 819 819 820 820 821 820 821 821 821 821 821 821 821 821 821 821 822 822 822 823 823 824 824 824 824 824 824
769 771 773 773 776 781 784 787 789 791 791 792 792 793 793 792 792 792 792 792 793 794 794 795 796 798 799 800 801 802 803 804 805 806 807 808 809 810 811 811 812 812 812 813 813 814 814 814 815 815 816 816 817 817 818 818 819 819 819 820 820 821 821 821 821 822 822 822 822 822 822 822 822 822 822 822 823 823 824 824 824 825 825 825 825
771 774 776 777 778 781 784 786 788 790 791 792 793 793 794 793 793 793 793 794 794 795 796 797 797 799 800 801 802 803 804 804 806 807 808 809 809 810 811 811 812 813 813 813 814 814 814 815 815 816 816 817 818 818 819 819 819 820 820 820 821 821 822 822 822 822 822 822 823 823 823 823 823 823 823 823 823 824 825 825 825 826 826 826 826
772 775 778 781 782 784 785 786 787 789 790 791 793 794 794 794 794 794 795 795 795 796 797 798 799 800 801 803 803 804 804 805 807 808 809 809 810 810 811 812 812 813 814 814 814 815 815 815 816 816 817 818 818 819 819 820 820 820 820 820 820 821 822 822 822 823 823 823 823 824 824 824 824 824 824 824 824 825 825 826 826 826 827 827 827
771 774 776 780 784 787 788 788 787 789 790 791 793 794 795 795 795 795 795 796 796 797 798 799 800 801 803 803 804 805 805 806 807 808 809 810 810 811 811 812 813 814 814 815 815 815 815 815 816 817 817 818 819 819 820 820 820 820 820 820 820 821 821 822 822 823 823 823 824 824 824 825 825 825 825 825 825 826 826 827 827 827 828 827 828
771 774 775 777 783 789 791 790 788 788 790 791 793 794 795 795 796 796 796 796 797 798 799 801 802 803 804 804 805 805 806 807 808 809 810 811 811 812 812 813 813 814 815 815 816 816 816 816 816 817 817 818 819 819 820 820 821 821 821 821 821 821 821 822 823 823 824 824 825 825 825 825 826 826 826 826 826 827 827 827 828 828 828 828 828
771 774 777 776 781 789 792 791 790 789 790 792 793 794 795 795 796 796 796 797 798 799 800 802 803 804 805 805 805 806 807 808 809 810 811 811 812 813 813 814 814 814 815 816 816 816 816 816 816 817 817 818 819 820 820 821 821 821 822 821 821 821 822 822 824 824 824 825 825 826 826 826 826 826 827 827 827 828 828 828 829 829 829 829 829
771 774 777 777 780 787 790 791 791 789 790 793 794 795 795 796 796 796 797 798 798 800 801 802 803 804 805 806 806 807 808 809 811 811 812 812 813 814 814 815 815 815 815 816 816 816 816 817 817 817 818 818 819 820 821 822 822 822 822 822 822 822 823 823 824 825 825 826 826 826 826 827 827 827 827 827 828 828 829 829 830 830 830 830 829
773 775 777 778 781 785 788 790 791 790 791 794 795 796 796 796 797 797 797 798 799 800 801 803 804 805 805 806 807 808 809 810 811 812 813 813 814 815 815 816 816 816 816 816 816 817 817 817 818 818 818 819 819 820 821 822 822 823 823 823 823 823 823 824 825 825 826 826 826 827 827 827 828 828 828 828 829 829 830 830 830 831 831 831 830
774 776 777 779 782 785 788 790 790 790 792 794 796 796 797 797 797 797 798 799 800 801 802 803 804 805 806 807 808 808 810 811 812 813 813 815 816 816 817 817 817 817 817 817 817 817 817 818 818 819 819 819 820 821 821 822 823 824 824 823 823 823 824 824 825 826 826 827 827 828 828 828 828 829 829 829 829 830 830 831 831 832 832 832 832
775 776 777 781 783 786 788 789 790 791 793 795 796 797 797 797 797 798 799 800 801 802 803 804 805 806 807 808 808 809 811 812 813 813 814 816 817 817 818 818 817 817 817 817 817 817 818 818 819 819 820 820 821 821 822 823 823 824 824 824 823 824 824 825 825 826 827 827 828 828 828 829 829 829 829 830 830 830 831 832 832 832 833 833 833
778 779 779 782 784 786 787 789 790 791 793 795 796 797 797 797 798 799 800 801 802 803 805 806 807 807 808 808 809 810 812 812 813 814 815 816 817 818 818 819 818 818 818 818 818 818 818 819 819 819 820 821 821 822 823 823 824 824 824 824 824 824 824 825 826 827 827 828 828 828 829 829 829 830 830 830 831 831 832 832 832 833 833 834 834
780 781 781 783 785 786 787 789 790 792 794 795 796 796 797 798 799 800 801 802 803 805 806 806 807 808 809 809 810 811 812 813 813 814 815 817 817 818 819 819 819 819 818 818 818 818 819 819 819 820 820 821 822 822 823 824 824 824 825 825 825 825 825 826 826 827 828 828 829 829 829 830 830 830 830 831 831 831 832 833 833 833 834 834 835
780 781 782 785 786 786 787 789 790 793 794 795 796 796 797 798 799 801 802 803 804 806 806 807 807 808 809 810 811 812 812 813 814 815 816 817 817 818 819 819 819 819 819 818 819 819 819 820 820 820 820 821 821 823 824 824 825 825 825 825 825 826 826 826 827 828 828 829 829 829 830 830 830 830 830 831 831 831 832 833 834 834 834 835 836
779 780 782 784 785 786 788 789 790 793 794 795 796 796 798 799 800 801 802 804 805 806 806 807 808 809 810 811 812 812 813 814 815 816 816 817 818 818 818 819 819 819 819 819 819 820 820 821 821 821 820 821 821 823 824 824 825 825 826 826 826 826 826 827 827 828 829 829 830 830 830 830 831 831 831 831 831 831 832 833 834 834 835 835 836
778 778 781 784 785 786 788 790 791 793 794 795 796 797 798 799 801 802 803 804 805 806 806 807 808 809 810 811 812 813 814 814 815 816 816 817 818 818 818 819 819 819 819 819 820 820 821 821 821 821 821 821 821 823 824 825 825 826 826 826 826 827 827 827 828 828 829 830 830 830 830 830 831 831 831 831 832 832 833 834 834 835 835 836 836
777 779 782 784 785 787 788 790 791 792 794 795 796 797 798 799 801 802 803 804 805 806 807 807 808 809 810 812 813 814 815 815 816 816 816 817 818 818 818 819 819 819 820 820 821 821 820 820 821 821 821 821 821 822 824 824 825 826 826 826 827 827 827 827 828 828 829 830 830 830 830 830 831 831 831 832 832 832 833 834 834 835 835 836 836
777 780 782 784 785 787 788 790 791 792 794 795 796 797 798 800 801 802 803 804 805 806 806 807 808 809 810 812 813 814 815 816 816 817 817 817 818 818 818 819 819 820 820 821 821 820 820 820 820 821 821 821 822 822 823 824 825 826 826 826 827 827 827 828 828 828 829 830 830 830 830 830 831 831 831 832 832 832 833 834 835 835 835 836 837
777 780 782 783 785 786 788 789 791 792 794 795 796 797 798 800 801 801 802 803 804 805 806 807 808 809 810 812 813 814 815 816 816 816 817 817 817 817 818 819 820 820 820 820 820 820 820 820 821 821 821 822 822 823 823 824 825 825 826 826 827 827 828 828 828 828 829 830 830 830 831 830 831 831 831 832 832 833 834 834 835 835 836 836 837
776 779 781 782 784 785 787 788 790 791 793 795 796 797 798 799 800 801 802 803 804 805 806 807 808 809 810 812 813 814 815 815 816 816 816 817 817 817 818 819 820 820 820 820 820 820 821 821 821 821 822 822 822 823 823 824 824 825 826 826 827 827 828 828 828 829 829 830 830 830 830 831 831 831 831 832 832 833 834 834 835 835 836 836 837
775 777 779 781 783 784 785 787 789 790 792 794 795 797 798 799 800 801 802 803 804 805 807 807 809 810 811 812 813 814 815 815 815 816 816 816 816 817 818 819 820 820 820 820 821 821 821 822 822 822 822 822 823 824 824 824 824 825 825 826 827 827 828 828 828 829 829 830 830 830 830 831 831 831 832 832 833 833 834 834 834 835 836 836 837
775 777 778 780 781 782 784 786 788 790 792 793 794 796 798 799 800 801 802 803 804 805 807 808 809 810 811 812 813 814 814 815 815 815 815 816 816 817 818 819 820 820 820 821 821 822 822 822 823 823 823 823 824 824 825 825 824 824 825 826 827 827 828 828 828 829 829 830 830 830 831 831 831 832 832 833 833 833 834 834 834 835 836 836 837
775 777 777 778 780 782 783 785 787 789 791 792 794 796 798 799 800 802 803 803 804 805 807 808 809 810 811 811 812 813 814 814 815 815 815 815 816 817 818 819 820 820 821 821 822 822 822 822 823 823 823 824 824 825 825 825 825 825 825 825 826 827 828 828 828 829 829 830 830 830 831 831 832 832 832 833 834 834 834 834 834 835 836 837 837
777 777 778 778 780 782 782 784 786 788 790 792 794 796 797 799 800 801 803 804 805 806 807 808 809 810 811 811 812 813 813 814 814 815 815 816 816 817 818 819 820 820 821 821 822 822 822 823 823 823 824 824 824 825 825 825 825 825 824 825 826 827 828 828 828 829 829 830 830 831 831 832 832 833 833 833 834 834 834 834 835 835 836 837 838
779 778 780 780 780 781 782 783 786 788 791 793 795 796 797 798 800 802 803 804 805 806 807 808 809 809 810 811 812 813 813 814 814 814 815 815 816 817 818 819 819 820 820 821 821 822 822 823 823 823 824 824 824 824 825 825 824 824 824 825 826 827 827 828 828 828 829 830 830 831 831 832 833 833 834 834 834 834 835 835 835 835 836 837 838
778 779 780 781 782 782 783 784 787 789 791 794 795 796 797 799 800 802 803 804 805 806 807 808 808 809 810 811 812 813 813 814 814 814 815 815 816 817 818 819 819 820 820 820 821 822 822 822 823 823 823 824 824 824 824 824 824 824 824 825 826 826 827 828 828 829 829 830 830 831 831 832 833 834 834 834 835 835 835 836 836 836 836 837 837
778 779 780 781 783 783 783 784 787 790 792 794 796 797 798 800 801 802 803 804 805 806 806 808 808 809 810 810 812 813 813 813 814 814 814 815 816 817 817 818 819 819 820 820 821 821 821 822 822 823 823 823 823 824 824 824 824 824 824 825 825 826 827 827 828 828 829 830 830 831 831 832 833 834 834 835 835 835 835 836 836 836 836 837 837
780 781 781 782 784 783 783 785 787 790 792 795 797 798 800 801 802 802 803 804 805 806 806 807 808 809 810 810 811 812 813 813 813 813 814 815 816 817 817 818 819 819 819 820 820 820 821 822 822 822 823 823 823 823 824 824 824 825 825 825 825 826 826 827 827 828 829 829 830 831 831 832 832 833 834 835 835 835 836 836 836 837 837 837 837
782 784 784 783 784 783 783 786 788 790 793 795 797 799 801 801 802 802 803 804 805 805 806 807 808 809 810 810 811 811 812 812 813 813 814 815 816 817 817 818 818 819 819 819 819 819 820 821 822 822 823 823 823 823 824 824 825 825 825 825 825 826 826 826 827 827 828 829 829 830 831 832 832 833 834 834 835 835 836 836 836 837 837 837 838
783 784 785 785 783 783 785 787 789 791 793 795 798 800 801 801 802 802 803 804 805 806 807 808 809 809 810 810 811 810 811 811 812 813 813 814 815 816 817 817 818 818 819 818 818 819 820 821 822 822 822 823 823 823 824 824 825 825 825 825 826 826 826 826 827 827 827 828 829 830 830 831 832 833 833 834 835 835 836 836 836 837 837 837 838
783 783 784 785 784 784 786 788 790 792 794 796 798 799 800 801 802 803 804 805 806 807 808 809 809 810 810 810 810 810 810 811 811 812 813 814 815 815 816 817 818 818 818 817 818 819 819 820 821 822 822 823 823 823 824 824 824 825 825 826 826 826 826 827 827 827 828 828 829 829 830 831 832 832 833 833 834 835 835 836 836 836 836 837 837
782 782 782 785 785 784 786 789 791 793 794 796 797 799 800 801 802 803 804 806 806 807 808 809 810 810 810 810 810 810 810 810 811 812 813 813 814 815 816 816 817 817 817 816 817 818 818 819 820 821 822 822 823 823 823 823 824 825 826 826 826 827 827 827 827 828 828 828 829 829 829 830 831 831 832 832 833 834 834 835 835 836 836 836 837
781 781 781 783 784 784 786 788 791 793 793 795 797 798 800 801 802 804 805 806 807 807 808 809 810 810 811 810 810 810 810 811 811 812 812 813 814 815 815 816 816 816 816 816 817 817 818 819 820 820 820 821 822 822 823 823 824 826 827 827 827 827 827 827 828 828 828 828 829 829 830 830 830 830 831 831 832 833 833 834 834 835 835 836 836
780 781 781 782 783 784 786 788 790 792 793 794 796 798 799 800 802 804 805 806 807 808 808 809 810 810 810 810 810 810 810 811 811 812 813 813 814 814 815 815 815 815 816 817 817 818 818 819 819 820 819 820 821 821 822 822 824 826 827 827 827 827 827 828 828 828 828 829 829 829 830 830 830 830 830 830 830 831 832 832 833 833 834 835 835
780 780 780 781 782 783 786 787 789 791 793 794 796 797 799 801 802 804 805 806 807 808 808 809 810 810 810 810 810 810 810 811 811 812 813 813 814 814 815 815 815 815 816 817 818 818 818 819 819 819 819 820 820 820 821 822 824 827 827 827 827 827 827 827 827 827 828 829 829 829 830 830 830 830 830 829 829 829 830 831 831 832 833 833 834
780 780 780 781 781 783 785 787 789 791 792 794 796 798 800 801 803 804 805 806 807 808 808 809 810 810 810 811 810 810 810 811 811 812 813 813 814 814 815 815 815 816 817 817 818 818 818 819 819 818 819 820 820 820 821 821 823 826 826 827 827 827 828 827 826 827 828 828 829 829 830 830 830 830 830 830 829 829 829 829 830 831 832 832 833
779 779 779 780 781 783 785 787 789 791 792 793 796 798 800 801 803 805 806 807 808 808 809 810 810 810 811 811 811 811 811 811 812 812 813 814 814 814 815 815 816 816 817 817 818 818 818 818 819 818 819 820 820 820 821 821 823 824 824 825 827 827 827 826 826 827 828 828 829 829 829 830 830 830 830 830 829 830 829 829 830 830 831 832 833
778 778 779 780 781 783 784 786 789 790 791 793 796 798 800 802 803 804 805 806 808 808 809 810 811 811 811 811 812 811 811 812 812 813 813 814 814 815 815 816 816 817 818 818 818 818 818 818 819 819 819 819 820 820 821 821 822 823 823 823 825 825 825 825 826 827 828 828 829 829 829 829 829 830 829 830 830 830 830 831 831 831 831 832 833
778 779 780 781 781 782 784 786 788 789 791 794 797 800 802 803 804 805 806 807 808 809 810 811 812 812 812 812 812 812 812 812 813 813 814 814 815 815 816 816 817 818 818 819 819 818 819 819 819 820 820 820 820 821 821 821 821 822 823 823 824 824 824 824 825 826 827 828 828 829 830 829 830 830 829 830 830 829 830 831 831 831 831 832 833
777 778 779 780 781 782 783 786 788 790 793 796 800 802 804 805 807 807 808 809 809 809 810 812 813 813 813 812 812 812 813 813 813 814 814 814 815 815 816 816 817 818 819 819 819 819 819 820 820 820 820 820 821 821 821 821 821 822 823 823 824 824 824 824 825 825 826 828 829 829 830 830 830 830 829 829 829 829 830 831 831 831 831 832 832
776 777 779 780 781 782 784 787 789 791 795 799 802 804 806 807 808 809 810 811 811 811 812 813 814 814 813 813 813 813 814 814 814 814 815 815 815 815 816 816 817 818 819 819 820 820 820 820 820 821 821 821 821 821 821 821 822 822 823 823 824 824 824 825 825 825 825 828 831 831 830 829 830 831 829 828 828 828 829 829 829 830 830 831 831
776 777 779 780 782 783 786 789 791 794 797 801 803 805 807 807 808 809 810 812 813 813 813 814 814 814 814 814 814 815 815 815 815 815 815 815 815 816 816 816 817 818 818 819 820 820 821 821 821 821 821 821 821 822 822 822 822 822 823 823 824 824 824 825 825 825 826 828 830 831 830 829 830 831 830 829 828 828 829 829 829 829 829 830 831
776 777 778 780 782 785 788 792 795 798 801 803 804 805 806 806 807 808 809 811 813 813 813 814 814 814 815 815 815 816 816 816 816 816 816 816 816 816 816 816 817 817 818 819 820 821 821 822 822 822 822 822 822 823 823 823 822 823 823 823 824 824 824 825 826 826 827 828 829 831 830 830 831 832 832 831 830 829 829 829 829 829 829 829 830
Wind_Speed
19 20 18 17 15 15 16 20 23 23 23 22 23 22 22 21 22 24 25 25 24 25 25 26 27 28 28 28 28 27 26 25 24 23 22 21 20 18 17 17 17 17 18 17 17 17 17 17 16 15 15 14 13 14 14 16 18 18 18 18 19 19 18 17 18 17 17 17 17 17 16 14 14 14 15 15 14 14 15 15 16 16 16 15 15
21 18 18 17 16 16 16 21 23 23 23 22 22 22 22 21 21 23 24 24 24 24 24 24 25 26 26 27 26 26 25 24 23 22 21 20 19 18 18 17 17 18 18 17 16 16 16 16 15 15 15 14 14 15 15 16 18 18 18 18 18 18 17 17 17 16 16 17 16 16 15 15 15 15 15 15 14 14 14 15 16 16 15 14 15
22 18 17 15 16 16 17 21 23 23 21 21 22 22 21 21 21 22 23 24 23 23 22 22 23 24 24 25 24 24 24 23 22 21 21 19 18 18 18 17 17 17 17 16 15 15 15 16 15 15 14 14 15 16 16 16 18 17 18 18 18 18 17 16 16 16 16 16 16 16 15 15 15 15 14 14 14 13 13 14 15 15 14 14 15
24 19 15 14 15 15 17 21 22 21 21 21 22 22 21 21 21 21 22 23 23 22 21 21 22 22 22 22 22 23 23 22 21 21 20 19 18 17 17 17 17 17 17 17 16 15 15 15 14 14 14 14 14 15 16 17 18 18 19 19 19 19 17 16 16 16 15 15 15 15 15 15 15 15 14 14 14 13 13 14 15 15 14 14 15
25 19 15 14 13 15 17 19 20 20 21 22 22 22 22 21 22 21 21 21 22 22 21 20 20 21 21 21 21 22 22 21 20 20 19 18 17 17 17 17 17 17 17 17 16 15 14 13 14 14 14 14 15 16 17 17 19 19 20 21 20 19 18 17 17 16 15 14 14 15 16 16 15 15 14 14 14 13 13 14 15 15 14 14 14
27 23 19 15 13 15 16 18 19 20 21 22 22 22 22 22 22 22 21 20 20 21 21 20 20 20 20 21 20 20 20 19 19 18 17 16 15 16 17 16 16 17 16 17 16 14 13 13 14 15 15 15 15 16 17 18 19 20 20 20 20 19 17 16 15 14 14 13 14 15 17 16 15 14 14 13 13 12 13 13 14 14 14 14 14
27 26 23 19 17 17 17 18 19 19 20 21 22 22 22 22 22 22 21 20 19 19 20 20 19 19 19 20 20 19 18 18 17 17 16 14 13 14 15 15 15 15 15 15 14 13 13 14 14 13 14 15 16 17 18 19 19 19 19 18 18 18 15 13 12 12 11 12 13 14 15 15 14 13 13 12 12 12 12 12 13 13 14 14 14
26 23 23 23 20 19 18 18 18 18 19 21 22 22 22 22 22 21 20 19 18 17 19 20 19 19 19 19 19 18 18 17 16 15 14 13 13 13 14 14 14 15 14 12 12 13 13 13 12 11 12 15 17 18 18 18 18 18 18 17 17 15 12 11 10 9 9 10 11 13 14 15 14 13 12 12 12 12 12 12 12 12 13 14 13
27 22 23 25 22 20 19 19 18 17 18 21 21 22 22 21 22 21 20 18 17 16 17 19 19 19 18 18 18 18 17 16 15 13 12 12 13 14 14 15 14 14 14 12 11 12 12 12 10 10 11 14 16 17 17 17 17 16 16 15 15 13 10 8 8 8 7 8 9 11 11 12 13 12 12 12 12 12 12 12 11 11 13 13 12
25 22 23 26 25 22 20 20 19 17 18 20 22 22 21 21 21 21 19 18 16 16 16 18 18 18 18 18 17 17 16 15 14 13 13 13 13 14 15 14 13 14 14 12 11 11 12 11 10 11 11 12 14 14 15 15 15 14 14 13 13 11 9 8 8 7 7 6 7 9 10 10 10 11 11 11 12 12 12 12 11 12 12 12 12
23 22 22 23 23 22 21 20 19 19 18 20 22 22 21 21 21 20 19 17 16 15 16 17 17 17 17 17 16 16 15 14 14 13 13 14 14 14 13 13 12 13 13 11 10 10 10 9 9 10 11 12 12 12 13 13 13 12 12 11 10 8 8 9 9 8 8 7 6 8 10 9 9 10 9 11 12 11 12 12 12 12 12 12 12
23 23 21 20 19 20 20 20 20 19 19 20 20 21 21 20 20 19 18 17 16 15 16 16 16 16 16 16 16 15 15 14 14 14 13 13 13 12 12 11 11 11 11 10 9 9 8 7 7 8 11 12 12 12 12 12 12 12 11 10 9 8 8 9 10 10 10 8 7 8 9 8 9 9 10 11 11 11 11 11 12 12 11 11 10
25 25 23 20 18 18 19 19 20 20 19 19 20 21 20 20 19 18 17 17 16 15 16 16 16 15 16 16 15 15 14 14 13 13 12 12 11 11 11 10 10 10 9 9 8 8 7 5 6 7 10 12 13 12 12 12 11 11 10 10 9 9 8 9 11 12 11 10 8 8 8 8 9 9 10 11 10 11 10 10 12 12 10 9 9
27 25 24 22 18 17 18 19 20 20 20 20 21 21 20 19 18 18 18 17 17 16 16 16 16 15 15 15 15 14 14 14 13 12 11 11 11 10 10 10 10 10 9 8 8 7 5 5 5 7 9 11 13 12 11 11 10 9 9 8 7 9 9 9 12 13 12 10 8 9 8 6 7 8 10 11 10 10 10 10 11 11 10 10 10
30 26 24 23 20 18 18 19 20 20 20 21 21 20 20 19 19 19 18 18 17 17 17 16 15 15 15 15 14 14 13 13 12 11 11 10 10 10 10 10 10 10 10 9 7 6 5 5 6 7 9 10 12 12 11 10 8 8 8 6 6 8 9 11 14 12 11 10 8 8 7 5 5 7 9 11 10 9 10 10 10 10 10 10 10
31 28 26 25 22 19 19 19 20 21 21 21 22 21 20 20 20 19 19 18 17 17 17 16 15 15 14 14 14 14 13 12 11 10 10 10 9 9 9 10 10 10 10 9 7 6 5 6 7 9 9 9 10 11 11 9 8 8 8 7 6 8 10 13 14 11 10 9 8 8 7 6 5 7 9 10 11 9 9 9 9 9 9 8 8
29 27 26 25 23 21 20 20 20 20 21 22 21 21 21 20 20 19 19 18 18 17 17 16 15 15 15 14 14 13 12 11 10 10 9 9 8 8 8 9 10 9 8 9 8 7 6 8 10 10 9 10 9 10 10 9 8 8 7 6 6 8 11 14 14 11 10 9 8 7 6 5 6 7 7 8 10 10 8 9 8 8 8 7 7
28 26 25 24 23 22 21 21 21 21 21 21 21 21 21 21 20 19 19 18 18 17 17 16 15 15 15 14 13 12 11 11 10 10 9 9 8 7 7 7 8 8 8 9 9 7 8 9 11 9 9 9 9 9 9 9 8 7 6 6 6 7 11 15 14 12 10 8 7 6 6 5 5 5 6 7 9 10 9 8 8 8 7 6 6
28 26 26 25 24 23 22 22 21 21 22 21 21 22 21 20 19 19 19 18 17 17 16 15 15 14 13 12 11 11 10 9 9 9 9 9 8 7 7 6 7 8 8 9 8 8 8 10 10 9 7 7 9 9 9 10 9 7 6 5 6 7 12 15 15 12 9 7 7 6 5 5 4 4 6 7 8 9 9 8 7 8 7 6 7
23 25 26 25 25 24 23 22 22 22 22 22 21 21 21 19 18 18 17 17 16 15 14 14 13 13 12 11 10 10 10 8 8 8 8 8 8 7 7 6 7 7 8 9 8 8 8 9 9 8 7 6 7 8 9 10 9 7 6 6 7 8 12 15 15 13 9 7 7 6 5 4 4 4 5 6 8 9 8 8 7 7 6 6 6
20 22 23 23 23 23 22 21 22 22 22 21 21 20 19 18 18 17 16 15 15 14 13 12 12 12 11 10 9 9 9 9 8 7 7 8 8 8 7 7 7 7 7 8 8 7 7 8 8 7 7 6 6 6 8 8 9 7 7 6 6 7 11 14 14 12 9 8 7 5 5 4 3 5 6 7 9 9 8 8 7 7 6 6 6
21 22 22 22 23 22 21 22 22 22 22 21 20 20 19 18 17 16 16 15 14 13 12 12 11 11 10 9 8 8 8 8 8 7 7 8 8 8 8 7 8 8 8 8 7 7 7 7 7 7 7 7 5 5 6 7 8 7 7 6 5 7 9 13 12 11 9 7 6 5 5 4 4 5 6 7 9 8 7 8 7 6 6 6 6
23 24 23 23 24 22 20 21 22 21 21 20 19 19 19 18 17 16 15 14 13 12 12 11 11 10 9 8 7 7 6 6 6 6 6 7 8 8 8 8 8 8 8 8 7 6 6 7 7 7 6 6 5 4 4 5 6 6 6 6 5 6 8 11 11 10 9 7 6 4 4 4 5 6 7 8 9 7 7 8 7 7 6 6 6
25 25 25 25 24 23 21 20 21 21 20 19 19 18 18 18 16 16 14 14 13 12 11 10 10 9 8 7 7 7 6 6 6 6 6 7 7 9 9 8 8 8 8 8 7 6 6 7 8 7 6 5 5 4 3 4 6 6 6 6 5 5 7 10 11 10 9 7 5 4 4 5 6 7 8 10 9 7 8 8 7 7 6 6 5
25 26 25 25 25 24 22 21 20 20 19 18 18 17 17 17 16 15 13 13 12 11 11 10 9 9 8 7 7 7 7 7 7 8 7 7 8 9 9 9 9 8 9 8 7 8 7 8 8 8 7 5 5 4 4 5 6 5 5 6 5 5 6 8 10 10 9 7 5 4 4 5 6 7 8 10 10 8 8 8 7 7 6 6 5
25 26 26 25 25 25 22 21 20 20 19 18 18 17 17 16 15 14 14 13 11 10 10 10 10 9 9 8 8 8 7 7 7 8 8 8 9 10 10 10 10 9 9 8 8 9 9 8 8 7 6 6 5 5 5 5 6 5 4 5 4 4 5 6 8 9 9 8 6 5 4 5 6 7 7 10 10 9 8 8 7 7 7 6 5
26 26 26 26 25 25 23 21 21 20 20 18 17 17 16 15 14 14 13 13 11 11 11 10 10 9 9 9 8 8 8 8 8 8 8 9 10 11 11 11 10 9 9 9 9 9 8 7 7 6 7 7 6 6 6 5 5 4 3 3 3 2 2 4 7 8 9 8 7 5 5 5 6 6 7 9 10 11 9 8 8 7 7 8 6
26 26 26 26 26 25 23 22 21 21 20 18 17 17 15 14 14 14 13 13 12 11 11 11 10 9 9 8 7 7 8 8 8 8 8 9 11 12 12 12 10 10 9 9 9 8 8 7 5 5 6 7 7 7 6 5 3 3 3 2 2 2 2 4 6 7 9 8 7 6 5 5 6 6 7 8 9 11 10 9 9 8 8 8 7
25 26 26 25 25 24 24 22 21 20 18 17 16 16 15 14 14 14 14 13 12 11 11 11 10 9 9 9 8 8 9 9 8 8 8 9 11 12 12 12 11 10 10 10 8 7 6 6 4 4 5 6 6 7 6 5 4 3 3 2 3 2 3 5 6 7 9 8 7 6 6 5 5 6 7 7 9 10 11 11 10 9 8 8 8
26 25 26 26 25 25 24 22 21 19 18 17 16 15 15 14 14 14 13 13 12 12 11 10 10 10 10 11 11 10 9 9 9 8 9 10 11 12 12 12 12 10 10 8 7 6 5 4 4 4 4 4 5 5 5 5 5 5 4 3 3 2 3 6 7 8 10 9 8 8 7 6 5 6 7 7 9 9 9 11 11 10 10 8 8
26 26 27 27 26 26 25 22 20 18 17 16 15 15 14 14 14 13 13 13 12 11 11 11 11 11 11 11 12 10 9 9 8 8 9 10 11 12 12 11 10 9 8 6 5 5 5 4 4 5 5 4 4 4 5 6 6 6 6 5 5 4 4 7 8 9 11 10 9 9 8 7 6 6 6 7 9 9 7 9 10 11 10 9 8
24 27 27 27 26 26 25 22 20 18 17 15 14 14 14 13 12 12 12 12 11 10 11 11 10 10 9 10 10 9 9 9 8 8 9 11 11 12 11 10 8 7 7 6 6 7 7 7 7 7 7 6 6 5 5 6 6 7 8 7 7 7 6 6 9 11 12 12 10 9 8 7 7 6 6 7 9 9 7 6 7 8 9 9 9
24 26 26 26 27 26 24 21 19 17 16 15 14 14 13 12 11 11 11 11 11 10 10 10 9 8 8 8 8 8 8 8 8 9 9 10 11 11 11 9 8 7 7 7 8 9 9 9 9 9 9 8 8 7 6 7 7 7 9 9 8 8 7 6 9 12 13 13 11 10 9 8 7 7 7 7 8 9 8 7 6 6 7 9 9
27 26 25 26 26 25 22 19 18 17 16 15 14 14 13 12 11 11 11 11 10 10 9 9 8 7 7 8 8 7 7 7 8 9 9 9 10 12 11 11 9 8 8 9 10 10 10 10 10 11 10 9 9 8 7 7 6 6 8 8 7 7 7 7 8 12 14 14 12 11 10 9 8 8 7 7 8 9 9 8 6 6 5 6 8
26 26 27 26 24 24 21 20 19 17 17 15 14 14 13 12 11 11 10 10 9 8 7 7 7 7 6 6 7 7 7 8 8 9 9 8 9 11 12 12 11 10 10 10 10 11 11 10 11 11 10 9 9 8 6 5 4 5 6 6 5 4 5 6 9 12 14 14 13 12 12 12 10 9 9 8 8 9 9 8 7 7 6 4 5
22 23 25 25 23 23 21 20 20 19 18 16 14 14 13 12 11 10 8 7 6 5 5 5 6 6 5 5 6 6 6 7 7 8 9 8 9 10 10 11 11 11 12 12 12 11 11 10 9 9 8 7 8 7 5 4 5 7 7 6 5 4 4 5 8 13 15 14 14 14 13 14 12 11 10 9 9 9 10 9 7 8 7 5 4
18 20 22 23 24 23 20 21 22 20 19 17 15 14 13 11 9 8 6 4 4 4 5 5 4 4 4 5 5 5 5 5 5 7 8 8 10 10 10 9 8 9 11 13 14 13 12 10 7 7 6 6 6 7 6 6 7 8 9 9 8 7 6 5 7 11 14 14 14 15 15 15 14 12 11 11 10 9 10 9 9 8 8 7 6
18 22 22 22 25 23 21 21 22 21 19 17 15 14 12 10 8 7 5 6 6 7 7 6 6 4 3 4 3 3 2 2 3 6 6 7 9 9 9 8 7 7 10 13 14 14 12 11 8 7 6 6 8 9 9 9 8 9 9 9 9 9 8 8 7 7 10 13 14 15 15 16 15 14 13 12 11 10 10 9 9 10 10 10 9
18 22 23 23 24 24 23 22 22 22 19 16 16 14 12 11 10 8 8 9 10 10 9 9 9 7 5 5 4 3 3 3 1 2 3 4 5 6 6 7 7 8 10 13 15 14 13 12 11 9 7 7 9 9 10 10 9 9 10 10 9 8 8 9 8 7 5 6 9 11 13 15 16 15 14 14 14 12 11 10 10 10 10 10 10
18 22 25 25 26 27 26 24 24 22 20 19 18 17 14 13 12 11 12 13 13 12 10 10 11 10 8 6 5 6 6 5 5 4 2 1 1 3 4 5 6 7 9 12 13 13 13 12 12 11 10 8 9 9 10 10 9 8 7 7 7 6 6 5 5 6 6 6 6 6 8 11 14 16 16 16 15 14 13 12 11 11 11 10 10
17 23 27 28 29 29 28 26 25 23 23 22 21 19 18 16 15 15 15 15 14 13 11 11 11 10 8 6 5 6 6 6 5 6 6 5 4 4 4 4 5 6 8 9 9 10 9 10 11 12 13 11 10 10 10 9 8 5 3 4 4 5 5 5 5 6 8 7 7 6 6 7 9 12 14 15 15 16 15 14 13 12 12 12 12
20 26 29 30 30 30 29 28 27 26 24 22 22 20 19 18 18 18 17 16 14 12 12 12 11 10 9 6 5 4 5 5 6 7 7 6 5 5 4 4 4 6 8 8 9 9 9 10 10 11 12 12 12 12 11 9 6 5 4 3 1 3 5 6 7 7 8 8 7 6 5 5 6 7 9 13 15 15 15 15 15 14 14 14 14
22 27 29 31 31 31 30 30 29 27 25 23 21 20 18 18 18 18 18 17 15 13 12 12 11 10 9 7 5 4 5 5 5 8 8 7 7 6 5 4 3 4 7 8 9 10 10 11 10 11 11 10 9 10 9 7 7 6 2 2 1 1 2 4 6 7 7 8 6 4 5 6 5 5 7 9 11 12 13 14 15 15 15 15 15
22 25 28 31 31 31 30 30 29 27 25 23 21 20 19 17 18 19 19 18 17 15 14 12 10 9 8 7 7 7 6 6 5 7 8 8 8 7 6 6 5 4 4 6 7 9 11 11 11 11 9 7 7 8 7 4 8 8 3 1 1 1 2 2 4 6 6 6 6 5 6 7 6 4 4 5 7 9 11 13 14 14 15 15 16
23 26 29 31 31 31 31 30 30 28 25 23 22 21 21 20 20 20 18 18 18 17 15 13 11 9 8 7 8 9 7 7 7 7 8 9 9 7 7 7 7 6 5 4 4 6 9 11 11 10 9 8 7 8 7 4 8 9 5 3 1 1 2 1 2 4 5 6 6 6 6 6 5 5 5 5 6 9 10 11 12 12 13 14 16
24 26 30 31 32 32 32 31 31 28 26 24 23 23 23 22 22 20 19 18 17 15 15 14 13 11 10 9 9 8 6 7 8 7 8 9 9 7 8 8 9 10 8 6 5 5 6 7 8 9 8 8 8 8 8 6 8 8 5 4 3 2 2 1 2 2 3 4 5 5 3 2 3 4 5 4 5 8 9 9 11 11 12 12 13
25 27 29 31 33 34 33 33 31 28 26 25 24 24 24 24 23 22 20 18 16 15 14 14 13 13 12 10 9 7 6 6 7 7 8 9 9 8 9 10 10 11 10 9 8 6 6 5 5 6 5 6 7 8 9 9 10 7 5 5 5 4 2 2 2 2 2 2 3 5 4 1 1 2 4 4 5 7 7 8 8 8 10 10 10
26 28 29 31 33 34 34 34 31 29 27 25 24 24 26 25 24 22 19 17 15 15 15 13 12 11 11 10 9 8 7 7 8 8 9 9 9 9 10 10 10 11 10 9 9 9 8 8 6 4 3 3 4 5 8 9 8 7 7 6 5 5 4 3 2 1 3 2 2 4 5 5 5 6 4 5 7 8 9 9 7 6 8 8 8
28 28 29 31 33 33 34 33 30 29 28 25 23 24 26 26 24 21 19 16 15 16 15 12 11 10 10 10 9 9 9 9 9 11 11 11 10 10 10 10 9 8 7 6 7 8 8 8 7 6 6 6 5 3 5 5 4 4 7 8 5 6 6 5 4 3 4 3 1 2 3 7 11 14 10 4 1 3 6 8 7 8 9 8 8
28 29 29 30 31 31 31 30 29 28 26 23 23 24 27 26 24 22 19 17 17 17 15 12 12 11 11 11 9 9 10 10 10 11 11 11 10 10 9 9 9 7 6 5 6 7 7 8 9 9 10 10 10 8 6 5 3 3 6 7 7 7 6 6 6 6 5 5 3 0 2 4 8 14 18 17 13 10 8 5 4 4 5 6 7
27 28 28 31 31 31 29 24 22 22 21 21 23 26 28 27 25 23 21 21 20 18 16 15 14 12 12 11 9 9 10 11 11 10 9 9 8 7 7 8 9 8 7 6 6 7 7 8 9 10 11 11 11 10 10 9 7 6 6 6 6 6 4 4 5 5 4 4 4 1 2 3 5 9 16 21 22 20 18 17 16 14 10 8 6
Wind_Direction
167 166 162 163 168 170 162 155 156 155 152 149 145 141 137 131 125 121 119 119 117 118 119 121 123 125 126 126 126 125 124 122 121 120 118 116 113 111 109 107 108 106 104 106 107 110 112 115 115 114 112 112 111 110 109 111 111 107 109 109 108 108 106 106 102 98 98 95 93 94 94 89 86 89 89 88 90 91 90 88 87 85 83 81 78
159 160 160 163 168 168 163 157 157 156 153 150 144 139 136 131 126 121 120 120 120 120 119 122 124 127 127 126 125 123 121 118 117 115 113 111 109 108 106 103 103 106 108 110 109 109 110 113 114 113 112 115 114 114 112 113 114 110 113 114 111 110 111 110 103 103 104 99 95 94 93 89 87 89 89 88 88 88 87 86 85 83 84 83 81
156 155 156 160 164 164 161 157 156 155 151 148 142 139 135 131 127 122 120 119 121 122 121 122 124 127 127 126 124 121 118 116 114 112 111 110 111 111 109 105 104 107 111 113 112 110 108 109 111 113 114 116 115 116 116 117 115 114 119 117 111 111 111 106 101 103 104 102 102 100 96 94 92 91 90 89 88 88 87 86 84 81 81 80 80
155 151 149 152 157 159 158 154 154 152 150 147 144 140 135 131 128 125 121 120 122 124 124 123 125 127 128 127 124 122 119 118 116 113 113 113 115 117 116 111 109 111 114 115 115 112 110 108 108 112 115 115 115 118 119 120 117 116 118 116 113 110 105 102 101 100 98 101 106 106 101 96 94 94 92 90 88 86 86 86 84 81 77 75 76
148 142 142 146 151 155 155 151 151 151 152 150 146 142 137 133 130 128 124 122 123 125 127 126 126 128 129 129 126 125 123 120 118 116 116 117 119 121 121 115 110 110 113 113 113 113 113 111 107 109 116 118 117 119 120 122 119 118 118 113 109 104 99 99 97 94 94 96 99 101 99 94 93 94 93 92 91 89 88 86 84 83 80 75 73
145 144 143 143 150 155 154 151 152 154 154 151 148 144 138 135 133 132 127 124 124 126 129 130 130 130 131 131 130 127 125 123 119 119 119 119 120 121 121 117 111 108 110 111 112 114 115 113 106 105 115 122 121 122 123 125 121 120 120 112 106 102 99 97 92 89 89 92 94 97 100 99 99 98 95 93 93 91 90 88 86 86 84 78 73
147 147 145 145 151 156 156 153 153 155 154 151 148 144 139 136 136 135 131 128 127 128 130 133 134 133 134 134 133 129 127 126 123 123 121 120 120 119 117 117 113 111 115 117 116 114 114 114 109 103 113 124 125 125 126 126 124 124 122 116 114 110 101 96 93 88 84 89 94 98 102 102 100 97 98 99 96 92 91 90 86 85 86 81 77
147 143 144 143 149 156 157 155 154 156 154 151 149 145 141 138 138 138 135 132 132 132 132 135 137 138 137 137 137 133 131 130 129 127 124 124 123 122 119 119 119 119 122 123 119 115 115 113 107 102 113 126 128 128 128 128 128 127 126 124 126 123 113 101 100 97 86 88 96 100 104 109 110 103 102 103 100 96 94 94 89 89 88 84 79
148 145 146 143 148 155 156 155 153 154 154 152 151 148 144 141 141 140 138 136 137 138 136 136 139 140 140 140 140 138 136 135 134 133 132 131 128 127 127 129 129 129 130 131 126 121 120 115 106 105 117 129 131 132 132 131 131 132 133 133 135 138 135 117 114 115 99 95 103 104 105 115 121 117 113 107 105 104 101 98 90 88 88 85 82
146 146 147 144 148 155 155 154 152 153 153 152 153 152 147 144 142 142 141 141 142 143 140 139 139 140 140 140 141 141 141 139 137 137 137 135 133 132 133 136 136 136 138 141 136 127 123 115 105 105 118 130 131 134 134 134 133 136 141 142 144 147 147 138 141 139 120 113 114 108 109 114 119 121 118 108 107 106 103 99 90 87 88 86 83
142 141 141 141 146 153 154 153 152 153 154 153 154 154 149 145 144 144 144 144 146 146 143 141 140 139 139 139 139 140 141 140 139 139 139 139 138 138 139 142 141 142 144 147 143 133 124 111 101 99 113 129 133 134 135 136 137 141 145 147 150 151 158 160 161 154 137 134 128 116 117 117 115 118 115 109 108 106 103 103 100 94 89 90 88
137 136 134 136 145 151 153 153 152 154 154 153 154 153 149 146 145 145 145 146 147 149 146 143 142 140 139 139 140 139 140 140 140 140 141 143 144 145 147 148 146 147 148 151 148 138 124 106 97 98 109 125 136 139 141 143 143 147 148 147 146 147 167 173 167 157 143 144 140 123 124 120 115 115 113 113 112 110 106 106 105 99 93 95 93
135 136 135 137 146 152 154 156 155 155 154 152 153 151 150 148 147 146 145 147 149 149 147 144 143 141 140 139 138 138 140 141 142 143 143 145 147 149 148 147 147 148 149 149 149 141 129 111 100 105 112 125 140 146 148 150 149 150 149 144 137 144 164 170 163 155 145 149 146 130 130 125 123 124 118 116 116 115 113 111 109 104 102 99 89
135 138 138 139 147 157 163 163 158 155 153 151 152 152 152 151 147 146 146 147 148 149 147 145 143 140 140 139 140 141 142 143 143 143 143 144 144 146 146 145 146 146 146 146 148 142 129 118 108 113 118 129 143 152 154 155 153 150 144 135 128 140 152 153 153 152 148 152 147 137 134 130 135 133 125 120 116 117 117 116 114 111 107 101 95
142 145 143 141 148 163 169 164 159 155 153 152 153 154 154 151 149 148 148 148 148 148 147 145 145 143 143 144 144 142 142 142 142 144 144 144 143 145 144 143 144 142 144 144 143 136 125 118 111 113 116 123 139 154 158 157 151 145 138 117 110 136 145 148 149 148 149 152 145 140 138 137 137 130 128 124 120 121 119 118 117 115 110 108 107
150 150 148 147 152 165 169 164 161 155 153 155 156 156 155 153 151 150 149 150 150 150 148 148 148 147 146 146 145 143 142 143 143 146 145 145 146 145 142 140 141 141 143 140 134 128 120 115 116 116 111 110 126 147 157 156 149 142 133 102 103 139 151 153 152 149 149 148 141 143 144 140 133 129 132 129 125 125 122 120 118 116 112 111 113
151 150 148 148 154 164 167 165 161 155 155 158 159 158 156 155 153 152 152 153 154 153 152 151 152 150 149 148 146 146 145 145 144 146 145 147 149 147 144 141 142 142 138 135 130 123 120 120 121 117 109 103 111 135 149 149 145 139 126 94 97 142 159 159 157 155 153 147 140 144 142 137 138 141 145 137 129 126 125 123 120 119 114 111 112
151 151 149 150 156 162 165 163 160 156 158 160 162 162 158 157 155 156 156 157 156 155 156 155 155 153 152 151 150 150 148 147 144 144 145 148 151 151 151 145 142 139 134 133 130 124 123 127 126 118 108 101 98 115 134 138 138 136 118 86 81 131 162 164 161 160 158 149 142 144 139 139 147 151 159 152 137 129 127 124 120 118 116 111 105
151 154 153 156 159 162 163 162 161 158 160 161 163 164 161 160 158 160 160 160 159 158 158 157 157 155 155 155 154 153 149 148 145 143 144 148 152 153 157 151 140 136 136 137 133 128 129 134 135 126 111 102 96 101 118 127 133 133 115 82 75 121 162 167 164 165 163 156 149 148 146 151 157 157 165 161 143 132 130 129 126 123 125 120 108
149 153 153 158 161 161 162 162 161 159 161 161 162 164 163 162 161 162 162 161 161 159 159 158 158 158 159 159 158 156 153 153 151 147 146 148 152 153 157 155 145 141 142 142 139 135 134 139 141 137 126 113 103 100 109 119 125 130 119 88 72 113 159 168 167 169 166 161 155 150 156 161 167 162 165 160 143 138 137 134 130 129 130 122 114
150 152 152 159 161 161 162 161 162 161 163 162 162 163 163 165 164 164 163 163 162 160 160 159 160 160 163 164 165 165 161 160 158 157 156 154 154 156 158 156 154 152 151 151 148 144 141 142 141 139 135 128 119 107 109 115 118 124 121 102 71 101 153 169 171 174 171 168 162 155 164 173 181 168 169 166 150 150 148 138 134 132 129 121 118
153 153 156 163 164 164 164 163 164 164 163 161 161 162 164 168 167 167 167 166 164 163 164 163 165 167 170 172 174 176 170 168 168 170 172 166 162 163 164 163 163 162 162 161 157 154 150 151 148 142 137 133 131 122 115 115 115 119 118 109 80 91 144 170 176 179 177 172 168 164 168 179 185 174 178 173 163 168 156 142 143 139 136 131 128
156 156 162 170 170 168 168 167 165 164 163 160 162 165 167 170 169 169 169 169 169 168 170 171 174 177 179 178 178 178 177 181 180 181 183 178 171 169 172 173 173 170 169 170 170 166 162 163 161 153 146 138 136 131 124 121 117 118 119 113 95 89 133 170 179 181 181 178 178 174 174 185 184 180 185 171 172 183 157 147 155 148 146 144 141
161 161 167 175 175 171 171 170 167 166 166 164 166 168 169 172 173 173 173 174 174 174 177 181 183 185 185 182 178 175 181 187 185 188 193 191 184 178 179 181 183 181 178 177 177 177 175 177 176 168 161 153 148 147 143 137 125 121 125 119 113 97 119 160 174 181 185 183 187 190 187 193 184 183 186 172 175 182 157 156 163 156 155 152 150
162 164 171 176 177 175 173 171 169 169 170 171 172 173 174 177 178 178 178 180 181 179 183 190 191 192 189 185 182 179 186 190 191 196 201 207 202 193 189 188 190 189 187 184 181 182 184 184 184 183 179 175 169 169 169 157 137 126 129 124 125 117 120 150 169 183 191 189 194 201 199 200 188 187 190 179 179 176 163 167 167 164 164 156 156
163 167 173 176 177 178 177 174 174 174 176 180 179 179 181 183 185 184 187 189 188 187 191 197 199 201 196 192 189 188 195 196 201 207 210 216 214 208 202 198 198 194 191 188 186 186 187 188 190 192 196 196 195 190 176 163 148 135 133 132 133 129 132 153 170 186 196 195 199 203 201 203 197 196 195 187 184 175 171 177 174 174 171 159 161
165 170 173 174 177 179 179 179 178 180 183 186 185 186 189 190 191 193 197 199 197 197 200 203 207 211 209 206 200 200 207 204 205 213 219 223 222 218 212 208 204 198 196 195 193 189 187 192 196 202 209 211 210 200 183 173 164 153 152 155 160 157 158 168 175 188 196 198 201 201 200 205 207 205 196 192 190 180 177 183 182 183 180 167 165
165 169 171 173 177 180 181 181 183 185 187 190 191 194 196 196 197 201 205 208 206 205 207 211 215 220 225 225 215 213 217 214 211 216 226 228 227 224 217 214 209 204 205 204 201 191 187 191 197 211 218 218 214 203 193 191 194 191 191 194 197 209 216 193 185 189 193 197 202 200 197 203 212 207 196 197 196 186 180 186 189 191 193 179 171
165 167 169 172 176 181 183 184 187 188 189 192 196 200 201 201 204 208 211 213 214 212 213 217 222 228 236 240 234 227 227 224 217 220 229 227 228 227 220 217 214 210 209 212 210 200 196 198 204 218 221 219 209 203 207 212 219 216 216 213 191 216 239 207 195 192 192 198 207 205 195 199 213 210 206 198 195 192 186 190 194 193 200 190 183
164 164 167 173 177 181 183 187 187 187 189 192 199 202 204 206 209 215 216 218 220 218 221 226 229 233 239 246 245 239 234 227 219 223 228 225 229 229 222 219 219 216 214 217 216 212 216 222 238 245 237 223 206 211 230 237 234 221 219 218 212 256 247 206 199 196 194 201 213 210 197 197 211 215 219 203 192 201 196 195 198 197 202 198 195
163 165 170 174 177 181 183 186 186 184 187 192 198 201 205 209 213 218 219 224 228 226 229 232 234 236 240 245 244 237 229 223 219 224 231 231 231 228 225 223 222 219 218 222 224 224 228 242 261 266 262 251 236 237 254 261 246 227 224 226 231 253 236 202 206 205 200 206 216 214 201 199 211 218 226 210 198 209 207 200 203 202 207 204 200
167 172 174 174 176 183 183 182 184 183 186 192 198 201 205 207 210 215 220 226 231 233 235 237 239 240 240 235 230 226 223 219 217 222 234 239 233 229 229 229 230 226 223 228 233 235 238 250 260 263 267 263 252 246 260 271 256 234 232 235 239 244 232 205 212 213 207 209 214 217 211 204 210 215 224 214 203 215 217 211 212 207 211 208 203
178 181 179 178 178 182 179 176 180 183 186 191 196 199 200 200 204 211 220 228 233 239 241 244 246 243 234 220 213 219 222 218 216 219 231 238 232 230 231 233 238 234 229 230 234 236 242 252 253 254 261 259 250 245 258 269 260 243 239 241 242 239 230 213 216 219 215 213 213 217 218 213 212 212 219 218 209 217 225 224 219 209 211 209 205
186 187 186 183 178 179 174 169 176 181 185 191 193 194 194 196 203 213 223 227 231 236 241 246 243 233 223 208 202 215 225 225 223 225 232 236 233 231 229 232 238 241 237 233 235 237 243 251 245 243 248 248 245 243 254 269 265 243 234 238 241 240 239 231 224 224 223 219 217 220 220 218 216 212 214 217 214 217 228 233 223 215 213 203 203
189 191 190 183 177 177 169 165 173 179 184 188 190 192 193 195 203 213 219 221 224 228 232 235 227 221 218 204 200 213 229 236 237 238 237 240 240 236 233 233 235 240 240 238 240 239 242 247 240 235 240 241 241 243 251 258 239 212 207 215 224 226 231 233 227 225 227 226 225 227 225 223 221 218 216 217 218 219 227 235 229 226 225 205 195
193 195 188 178 179 175 165 166 173 178 181 183 188 193 194 195 201 207 211 213 214 208 202 205 207 211 211 207 209 216 232 243 249 247 242 248 253 250 246 241 238 236 238 243 245 242 237 234 231 228 232 240 239 234 227 208 195 182 174 172 171 164 174 213 226 225 227 230 232 235 234 231 228 226 224 222 223 222 225 233 236 237 236 231 218
196 193 184 178 180 173 166 170 175 179 179 180 188 192 192 192 191 190 195 191 173 156 160 164 166 183 190 195 213 223 239 250 254 256 253 255 258 257 255 248 241 233 234 241 243 240 232 219 218 216 217 231 223 202 181 174 173 165 161 159 153 150 153 175 211 222 224 225 229 234 236 237 234 235 235 232 232 228 227 231 235 241 241 242 244
193 190 191 186 179 172 171 176 178 182 182 180 183 183 185 184 176 171 163 147 141 137 138 135 132 143 150 156 189 216 235 233 241 259 260 255 252 250 249 246 239 230 230 235 236 237 230 216 208 204 204 209 201 185 172 165 159 152 150 149 151 156 155 155 171 198 216 221 225 230 235 238 237 240 244 243 241 237 234 235 236 239 241 243 249
195 193 196 192 180 175 177 178 181 186 184 178 172 173 177 175 168 157 143 141 142 140 136 130 127 127 123 123 128 117 96 95 112 266 260 256 251 240 242 239 229 231 236 235 233 232 229 220 209 203 199 192 189 184 175 168 158 148 143 140 142 150 150 147 148 146 151 192 216 225 231 236 238 241 246 247 246 244 242 241 240 239 241 243 246
194 189 187 188 181 176 177 180 185 186 177 167 163 167 171 171 167 156 148 146 146 145 141 133 128 125 126 128 122 113 100 88 82 77 97 116 184 206 223 221 216 227 235 233 232 230 227 224 216 211 208 191 181 180 178 172 159 149 144 143 145 149 153 152 156 160 151 146 161 193 214 225 233 239 243 246 247 248 247 246 246 246 246 248 249
181 176 174 178 178 175 176 178 181 178 168 162 163 167 171 172 168 160 156 153 153 155 148 143 138 132 130 130 123 118 113 107 100 96 99 99 116 146 168 188 204 220 226 225 224 223 218 216 213 212 215 212 197 186 186 175 157 164 173 153 156 163 176 191 196 197 189 175 161 167 188 206 223 233 239 244 246 247 247 247 249 250 251 252 254
171 168 167 170 171 171 172 171 170 168 166 166 167 170 173 174 170 165 162 161 164 163 153 149 146 140 136 132 127 128 124 118 118 118 110 98 111 130 143 163 191 203 207 208 210 209 203 200 201 200 203 210 206 194 191 176 167 209 198 140 130 158 170 176 181 190 188 187 182 177 199 206 212 222 225 232 237 240 243 246 248 250 252 253 253
172 166 164 164 163 165 167 166 165 166 167 169 170 172 173 173 171 165 162 162 163 159 150 146 145 141 135 129 128 140 140 126 123 126 114 100 105 113 119 132 151 168 182 192 201 208 206 202 201 201 196 194 193 188 189 173 176 212 189 133 209 175 177 169 164 179 187 193 190 183 203 196 194 211 211 219 228 230 233 238 243 246 248 251 253
179 169 162 161 161 163 166 166 166 168 168 169 172 172 170 170 165 158 154 152 152 152 150 148 153 150 137 127 122 125 130 128 135 134 118 110 110 108 105 106 106 119 149 174 192 208 216 214 209 212 208 190 178 181 194 164 166 189 175 129 181 117 198 207 145 155 174 188 183 183 199 187 179 199 206 222 232 235 236 236 239 242 244 247 252
183 172 165 165 164 167 170 170 169 169 169 171 174 173 172 169 160 151 147 145 146 150 150 150 156 158 150 141 126 120 117 114 129 141 129 126 125 114 106 101 100 105 114 136 165 192 210 218 217 221 219 204 194 186 190 172 165 183 182 146 91 96 218 228 123 136 147 153 157 175 206 210 210 231 239 243 254 265 269 258 245 241 246 251 255
184 176 171 170 170 171 173 172 172 171 170 174 177 176 176 173 165 158 154 151 151 155 155 152 151 150 148 148 138 127 118 109 117 133 139 138 134 126 122 117 110 110 114 121 132 155 185 205 211 220 226 221 218 193 177 189 189 186 177 137 99 109 180 142 121 118 120 132 142 158 182 214 214 241 253 253 266 274 278 270 255 248 250 255 259
184 179 176 175 175 175 175 174 173 171 171 174 178 179 177 175 173 171 168 167 165 161 158 154 150 146 145 148 147 137 128 117 115 128 147 146 137 133 135 131 121 117 116 114 111 114 133 148 167 195 217 219 218 196 176 195 203 187 162 126 91 85 108 140 151 126 127 122 105 125 123 126 219 280 284 284 288 276 270 264 256 250 249 251 259
183 181 180 179 178 177 176 176 174 171 172 175 179 183 179 176 175 175 175 180 176 162 156 154 153 153 151 153 153 143 129 121 118 125 143 146 137 135 140 138 129 124 120 110 103 102 109 118 129 148 165 174 202 202 188 198 210 201 182 155 108 88 101 127 155 131 136 124 41 71 87 98 78 36 353 281 276 266 262 265 266 267 264 268 274
184 184 184 182 181 179 178 177 173 171 174 178 181 184 182 179 178 177 175 177 173 161 157 158 159 160 157 153 151 145 135 128 124 125 130 133 130 132 136 136 131 128 124 113 106 104 105 111 113 113 117 117 115 135 163 179 198 203 195 183 147 108 102 106 109 97 96 97 27 358 56 92 75 50 51 66 301 260 255 265 276 284 281 285 283
188 188 187 185 182 179 179 178 174 172 175 181 184 185 185 184 182 180 174 169 166 162 160 161 161 160 153 149 146 143 142 140 136 131 129 127 125 127 131 135 137 135 131 120 109 105 102 105 107 104 102 102 103 105 108 112 119 145 170 175 154 130 111 89 82 82 80 83 102 78 24 74 67 51 58 67 70 76 77 65 35 345 318 308 292
190 190 189 188 184 182 181 174 168 171 178 185 189 189 188 189 188 183 175 170 168 167 165 163 161 162 157 154 153 148 148 149 148 144 140 135 129 125 130 136 140 141 137 127 113 105 102 106 110 107 102 98 102 104 97 89 90 104 131 156 154 140 124 97 79 73 77 89 102 100 25 63 79 64 63 67 70 74 72 67 62 55 44 31 26